�������l�o���
Date,Time,MP-1(��Sv/h),MP-2(��Sv/h),MP-3(��Sv/h),MP-4(��Sv/h),MP-5(��Sv/h),MP-6(��Sv/h),MP-7(��Sv/h),MP-8(��Sv/h),����,����(m/s),���J
2022/05/09,00:00,0.586,0.879,0.556,1.071,0.756,0.351,0.606,0.572,�k�k��,3.4,��
2022/05/09,00:10,0.586,0.877,0.554,1.071,0.758,0.350,0.608,0.572,�k�k��,5.2,��
2022/05/09,00:20,0.587,0.879,0.554,1.070,0.757,0.350,0.607,0.572,�k�k��,4.7,��
2022/05/09,00:30,0.587,0.877,0.555,1.071,0.756,0.350,0.609,0.572,�k�k��,3.5,��
2022/05/09,00:40,0.585,0.876,0.554,1.070,0.758,0.351,0.607,0.570,�k�k��,3.5,��
2022/05/09,00:50,0.586,0.879,0.555,1.070,0.757,0.351,0.606,0.570,�k�k��,3.8,��
2022/05/09,01:00,0.586,0.878,0.556,1.073,0.755,0.350,0.607,0.571,�k��,3.5,��
2022/05/09,01:10,0.587,0.876,0.554,1.071,0.754,0.352,0.607,0.573,�k�k��,2.3,��
2022/05/09,01:20,0.588,0.878,0.556,1.070,0.756,0.352,0.607,0.571,�k�k��,3.1,��
2022/05/09,01:30,0.587,0.877,0.556,1.070,0.756,0.352,0.608,0.572,�k�k��,3.1,��
2022/05/09,01:40,0.587,0.878,0.555,1.073,0.756,0.351,0.609,0.571,�k�k��,2.5,��
2022/05/09,01:50,0.587,0.878,0.556,1.069,0.757,0.351,0.608,0.571,�k��,2.2,��
2022/05/09,02:00,0.586,0.877,0.556,1.071,0.755,0.350,0.608,0.575,�k��,1.9,��
2022/05/09,02:10,0.587,0.879,0.554,1.068,0.756,0.351,0.608,0.570,���k��,1.1,��
2022/05/09,02:20,0.585,0.877,0.554,1.071,0.758,0.351,0.606,0.572,���쐼,0.9,��
2022/05/09,02:30,0.585,0.878,0.556,1.071,0.755,0.351,0.607,0.571,�쐼,1.2,��
2022/05/09,02:40,0.587,0.878,0.553,1.070,0.758,0.351,0.608,0.571,���쐼,1.1,��
2022/05/09,02:50,0.585,0.877,0.555,1.071,0.755,0.351,0.607,0.570,��,1.2,��
2022/05/09,03:00,0.587,0.879,0.556,1.071,0.756,0.351,0.608,0.571,��,1.5,��
2022/05/09,03:10,0.587,0.876,0.558,1.073,0.756,0.350,0.608,0.571,���k��,1.7,��
2022/05/09,03:20,0.586,0.878,0.555,1.071,0.757,0.351,0.608,0.570,���k��,1.9,��
2022/05/09,03:30,0.587,0.878,0.554,1.071,0.757,0.351,0.608,0.569,���쐼,1.4,��
2022/05/09,03:40,0.585,0.878,0.556,1.069,0.756,0.351,0.608,0.573,�쐼,1.2,��
2022/05/09,03:50,0.585,0.878,0.555,1.071,0.757,0.351,0.608,0.571,���쐼,1.9,��
2022/05/09,04:00,0.587,0.876,0.556,1.070,0.755,0.350,0.608,0.571,�쐼,1.9,��
2022/05/09,04:10,0.585,0.878,0.555,1.071,0.756,0.351,0.607,0.570,��쐼,2.6,��
2022/05/09,04:20,0.586,0.877,0.555,1.071,0.757,0.351,0.609,0.572,��쐼,3.5,��
2022/05/09,04:30,0.587,0.878,0.556,1.071,0.754,0.351,0.608,0.572,��,3.5,��
2022/05/09,04:40,0.585,0.879,0.554,1.070,0.757,0.350,0.608,0.572,��쐼,3.5,��
2022/05/09,04:50,0.586,0.875,0.555,1.069,0.757,0.350,0.610,0.572,��쐼,2.6,��
2022/05/09,05:00,0.584,0.877,0.557,1.071,0.756,0.350,0.608,0.571,��,3.4,�L
2022/05/09,05:10,0.585,0.879,0.558,1.071,0.756,0.350,0.607,0.572,��쐼,1.7,�L
2022/05/09,05:20,0.586,0.877,0.555,1.070,0.757,0.351,0.607,0.572,��,2.2,�L
2022/05/09,05:30,0.587,0.878,0.556,1.072,0.757,0.350,0.608,0.571,��쓌,1.5,�L
2022/05/09,05:40,0.589,0.880,0.555,1.072,0.756,0.351,0.606,0.570,��,1.5,�L
2022/05/09,05:50,0.586,0.878,0.556,1.071,0.757,0.354,0.608,0.570,��쓌,1.1,�L
2022/05/09,06:00,0.586,0.875,0.557,1.070,0.758,0.353,0.609,0.572,-,CALM,�L
2022/05/09,06:10,0.586,0.874,0.556,1.072,0.756,0.352,0.608,0.570,-,CALM,�L
2022/05/09,06:20,0.585,0.872,0.555,1.070,0.754,0.355,0.608,0.573,��쓌,1.9,�L
2022/05/09,06:30,0.584,0.871,0.553,1.070,0.753,0.352,0.607,0.570,��쓌,2.0,�L
2022/05/09,06:40,0.584,0.868,0.553,1.068,0.749,0.352,0.606,0.569,�쐼,3.7,�L
2022/05/09,06:50,0.584,0.870,0.553,1.066,0.750,0.353,0.606,0.570,�쐼,5.0,�L
2022/05/09,07:00,0.583,0.870,0.552,1.065,0.748,0.353,0.603,0.570,�쐼,7.9,�L
2022/05/09,07:10,0.583,0.869,0.553,1.067,0.747,0.352,0.604,0.568,�쐼,9.4,�L
2022/05/09,07:20,0.582,0.868,0.552,1.065,0.744,0.352,0.603,0.567,�쐼,9.6,�L
2022/05/09,07:30,0.581,0.868,0.551,1.064,0.745,0.351,0.603,0.567,�쐼,7.8,�L
2022/05/09,07:40,0.583,0.868,0.552,1.063,0.745,0.351,0.602,0.565,���쐼,7.0,�L
2022/05/09,07:50,0.583,0.865,0.552,1.063,0.744,0.351,0.603,0.564,�쐼,5.9,�L
2022/05/09,08:00,0.582,0.865,0.549,1.065,0.743,0.349,0.602,0.567,�쐼,6.0,�L
2022/05/09,08:10,0.581,0.862,0.550,1.063,0.742,0.349,0.602,0.564,�쐼,5.9,��
2022/05/09,08:20,0.582,0.862,0.549,1.063,0.743,0.349,0.603,0.566,�쐼,6.9,��
2022/05/09,08:30,0.579,0.863,0.548,1.059,0.740,0.349,0.601,0.565,�쐼,6.7,�L
2022/05/09,08:40,0.581,0.861,0.549,1.061,0.742,0.348,0.603,0.567,��쐼,7.5,�L
2022/05/09,08:50,0.581,0.863,0.548,1.061,0.741,0.347,0.601,0.565,��쐼,8.3,�L
2022/05/09,09:00,0.580,0.862,0.547,1.062,0.742,0.347,0.601,0.567,��쐼,8.1,�L
2022/05/09,09:10,0.580,0.863,0.547,1.062,0.741,0.347,0.601,0.567,��쐼,9.4,�L
2022/05/09,09:20,0.580,0.859,0.548,1.060,0.739,0.346,0.602,0.567,��쐼,8.9,�L
2022/05/09,09:30,0.581,0.858,0.546,1.059,0.742,0.347,0.602,0.568,�쐼,4.4,�L
2022/05/09,09:40,0.579,0.860,0.547,1.060,0.741,0.348,0.601,0.566,��쐼,5.0,�L
2022/05/09,09:50,0.579,0.858,0.546,1.058,0.740,0.347,0.601,0.566,��쐼,5.8,�L
2022/05/09,10:00,0.577,0.859,0.547,1.061,0.739,0.348,0.601,0.564,��,5.3,�L
2022/05/09,10:10,0.577,0.858,0.547,1.060,0.739,0.347,0.600,0.566,��쐼,5.2,�L
2022/05/09,10:20,0.580,0.857,0.547,1.062,0.737,0.347,0.599,0.567,��,5.5,�L
2022/05/09,10:30,0.578,0.859,0.547,1.058,0.740,0.348,0.599,0.565,��,6.0,�L
2022/05/09,10:40,0.579,0.856,0.546,1.058,0.739,0.347,0.600,0.565,��,4.7,�L
2022/05/09,10:50,0.579,0.858,0.547,1.060,0.737,0.348,0.600,0.565,��,4.9,�L
2022/05/09,11:00,0.578,0.856,0.546,1.059,0.737,0.347,0.600,0.565,��쓌,4.5,�L
2022/05/09,11:10,0.577,0.855,0.545,1.058,0.737,0.348,0.602,0.564,��쓌,3.7,�L
2022/05/09,11:20,0.577,0.855,0.545,1.060,0.738,0.346,0.600,0.565,��쓌,4.8,�L
2022/05/09,11:30,0.577,0.857,0.547,1.056,0.737,0.346,0.600,0.565,��쓌,4.5,�L
2022/05/09,11:40,0.577,0.854,0.546,1.059,0.737,0.345,0.599,0.566,��,3.8,�L
2022/05/09,11:50,0.578,0.857,0.546,1.058,0.736,0.347,0.598,0.564,��,3.9,�L
2022/05/09,12:00,0.577,0.855,0.545,1.059,0.736,0.348,0.598,0.564,��,4.5,�L
2022/05/09,12:10,0.576,0.858,0.546,1.059,0.735,0.348,0.601,0.564,��,3.5,�L
2022/05/09,12:20,0.577,0.857,0.546,1.060,0.736,0.347,0.600,0.563,��쐼,2.5,�L
2022/05/09,12:30,0.577,0.859,0.547,1.059,0.735,0.346,0.601,0.565,�쐼,2.3,�L
2022/05/09,12:40,0.577,0.859,0.546,1.060,0.737,0.348,0.600,0.565,�쐼,3.2,�L
2022/05/09,12:50,0.578,0.859,0.545,1.060,0.737,0.348,0.601,0.566,�쐼,3.7,�L
2022/05/09,13:00,0.577,0.856,0.546,1.058,0.736,0.349,0.600,0.565,�쐼,3.8,�L
2022/05/09,13:10,0.578,0.855,0.546,1.057,0.736,0.349,0.598,0.565,�쐼,3.4,�L
2022/05/09,13:20,0.575,0.856,0.546,1.059,0.735,0.349,0.600,0.565,��쐼,3.9,�L
2022/05/09,13:30,0.576,0.853,0.546,1.055,0.736,0.350,0.598,0.564,��,3.9,�L
2022/05/09,13:40,0.575,0.848,0.545,1.054,0.732,0.349,0.598,0.565,��쐼,4.7,�L
2022/05/09,13:50,0.575,0.848,0.544,1.052,0.729,0.348,0.598,0.562,��쐼,4.7,�L
2022/05/09,14:00,0.574,0.847,0.546,1.051,0.730,0.348,0.596,0.563,��,4.6,�L
2022/05/09,14:10,0.574,0.847,0.543,1.049,0.730,0.348,0.596,0.561,��,5.0,�L
2022/05/09,14:20,0.574,0.848,0.544,1.048,0.728,0.348,0.595,0.559,��,4.9,�L
2022/05/09,14:30,0.573,0.846,0.544,1.047,0.728,0.348,0.597,0.561,��쓌,5.4,�L
2022/05/09,14:40,0.571,0.843,0.544,1.045,0.726,0.347,0.594,0.559,��,5.8,�L
2022/05/09,14:50,0.571,0.842,0.542,1.043,0.724,0.347,0.595,0.560,��,7.0,�L
2022/05/09,15:00,0.572,0.841,0.544,1.040,0.724,0.346,0.593,0.557,��쓌,9.2,�L
2022/05/09,15:10,0.569,0.839,0.541,1.038,0.721,0.346,0.592,0.557,��,9.0,�L
2022/05/09,15:20,0.568,0.838,0.541,1.037,0.722,0.346,0.591,0.557,��,10.2,�L
2022/05/09,15:30,0.568,0.838,0.541,1.033,0.721,0.345,0.593,0.558,��,9.6,�L
2022/05/09,15:40,0.566,0.840,0.541,1.035,0.718,0.346,0.592,0.558,��,9.4,�L
2022/05/09,15:50,0.569,0.834,0.539,1.033,0.718,0.346,0.592,0.557,��,9.5,�L
2022/05/09,16:00,0.566,0.835,0.540,1.033,0.720,0.345,0.592,0.557,��쓌,8.3,�L
2022/05/09,16:10,0.566,0.835,0.539,1.031,0.719,0.346,0.592,0.556,��쓌,9.0,�L
2022/05/09,16:20,0.566,0.836,0.539,1.028,0.718,0.344,0.589,0.557,��,8.9,�L
2022/05/09,16:30,0.565,0.834,0.541,1.026,0.714,0.345,0.591,0.557,��쓌,8.9,�L
2022/05/09,16:40,0.566,0.833,0.542,1.026,0.715,0.346,0.590,0.556,��쓌,10.2,�L
2022/05/09,16:50,0.567,0.834,0.540,1.024,0.715,0.348,0.589,0.556,��쓌,10.2,�L
2022/05/09,17:00,0.568,0.834,0.541,1.021,0.717,0.346,0.590,0.556,��,9.7,�L
2022/05/09,17:10,0.569,0.835,0.542,1.023,0.717,0.347,0.590,0.556,��쓌,11.4,�L
2022/05/09,17:20,0.566,0.833,0.543,1.020,0.712,0.347,0.590,0.559,��쓌,12.7,�L
2022/05/09,17:30,0.568,0.832,0.541,1.022,0.715,0.347,0.590,0.557,��쓌,11.1,�L
2022/05/09,17:40,0.568,0.835,0.542,1.019,0.715,0.347,0.589,0.557,��,10.3,�L
2022/05/09,17:50,0.565,0.831,0.539,1.019,0.717,0.346,0.589,0.557,��,7.8,�L
2022/05/09,18:00,0.568,0.832,0.540,1.019,0.716,0.347,0.589,0.559,��,10.6,�L
2022/05/09,18:10,0.566,0.834,0.538,1.020,0.715,0.347,0.589,0.559,��쐼,5.5,�L
2022/05/09,18:20,0.566,0.834,0.540,1.017,0.717,0.348,0.588,0.559,��,6.4,�L
2022/05/09,18:30,0.564,0.829,0.540,1.018,0.715,0.347,0.588,0.557,��쐼,7.6,�L
2022/05/09,18:40,0.563,0.832,0.536,1.018,0.715,0.345,0.588,0.559,��쐼,7.4,�L
2022/05/09,18:50,0.561,0.828,0.536,1.017,0.715,0.344,0.587,0.558,��,5.4,�L
2022/05/09,19:00,0.562,0.832,0.537,1.016,0.717,0.342,0.587,0.558,��,6.2,�L
2022/05/09,19:10,0.563,0.830,0.534,1.018,0.714,0.343,0.586,0.559,��,6.3,�L
2022/05/09,19:20,0.560,0.831,0.533,1.017,0.711,0.340,0.587,0.557,��,7.3,��
2022/05/09,19:30,0.561,0.831,0.534,1.017,0.713,0.342,0.588,0.557,��,6.5,�L
2022/05/09,19:40,0.561,0.829,0.533,1.017,0.714,0.341,0.589,0.558,��,6.9,�L
2022/05/09,19:50,0.559,0.830,0.533,1.016,0.714,0.343,0.588,0.555,��,6.2,�L
2022/05/09,20:00,0.559,0.831,0.533,1.016,0.714,0.340,0.587,0.557,��,5.5,�L
2022/05/09,20:10,0.560,0.829,0.533,1.016,0.712,0.340,0.588,0.557,��,6.1,��
2022/05/09,20:20,0.558,0.830,0.534,1.016,0.711,0.340,0.589,0.556,��,6.1,��
2022/05/09,20:30,0.560,0.830,0.533,1.015,0.711,0.340,0.586,0.556,��,6.1,��
2022/05/09,20:40,0.558,0.830,0.534,1.014,0.712,0.341,0.588,0.557,��,6.9,�L
2022/05/09,20:50,0.559,0.830,0.532,1.016,0.714,0.341,0.588,0.557,��,7.9,�L
2022/05/09,21:00,0.559,0.831,0.533,1.016,0.713,0.341,0.589,0.557,��,4.7,�L
2022/05/09,21:10,0.558,0.831,0.534,1.017,0.713,0.339,0.589,0.555,��쐼,3.9,��
2022/05/09,21:20,0.559,0.831,0.533,1.015,0.713,0.341,0.588,0.557,��쐼,4.9,��
2022/05/09,21:30,0.561,0.830,0.535,1.015,0.714,0.341,0.587,0.556,��쐼,6.5,��
2022/05/09,21:40,0.558,0.832,0.533,1.015,0.712,0.340,0.588,0.556,��쐼,6.0,��
2022/05/09,21:50,0.559,0.829,0.533,1.014,0.713,0.340,0.589,0.556,��쐼,5.4,��
2022/05/09,22:00,0.558,0.830,0.533,1.015,0.714,0.342,0.590,0.556,��쐼,5.6,��
2022/05/09,22:10,0.559,0.831,0.533,1.016,0.714,0.340,0.590,0.557,��쐼,5.5,��
2022/05/09,22:20,0.558,0.830,0.532,1.016,0.713,0.340,0.588,0.556,��,5.3,��
2022/05/09,22:30,0.559,0.831,0.533,1.015,0.713,0.339,0.586,0.556,��,4.9,��
2022/05/09,22:40,0.559,0.832,0.534,1.015,0.712,0.341,0.589,0.557,��,4.8,��
2022/05/09,22:50,0.557,0.830,0.533,1.018,0.714,0.340,0.588,0.557,��,5.0,��
2022/05/09,23:00,0.558,0.832,0.534,1.014,0.713,0.340,0.588,0.558,��쐼,4.0,��
2022/05/09,23:10,0.558,0.830,0.531,1.015,0.713,0.340,0.588,0.556,��쐼,4.3,��
2022/05/09,23:20,0.559,0.831,0.534,1.017,0.715,0.339,0.588,0.556,��쐼,4.0,��
2022/05/09,23:30,0.559,0.833,0.533,1.016,0.713,0.341,0.588,0.555,��쐼,4.0,��
2022/05/09,23:40,0.558,0.831,0.533,1.015,0.715,0.341,0.589,0.556,��쐼,3.9,��
2022/05/09,23:50,0.559,0.830,0.533,1.015,0.714,0.339,0.589,0.556,��쐼,4.7,��
